Location: Unspecified
(29.9680°N, 0.0000°E)
Time: 17:05:27
(UTC+00:00)

Explorer 7 - Pass Details

Date: 01 July 2019
Orbit: 485 x 680 km, 50.3° (Epoch: 17 July)

Event Time Altitude Azimuth Distance (km) Brightness Sun altitude
Rises 12:48:52 0° 307° (NW) 2,932 10.6 77.8°
Reaches altitude 10° 12:51:14 10° 301° (WNW) 2,047 10.0 77.4°
Maximum altitude 12:55:44 44° 229° (SW) 913 9.1 76.5°
Drops below altitude 10° 13:00:22 10° 157° (SSE) 2,100 9.9 75.6°
Sets 13:02:50 0° 151° (SSE) 3,017 10.6 75.2°
